Regional Weather Roundup
Issued by NWS Albany, NY

Home | Current Version | Previous Version | Text Only | Print | Product List | Glossary On
Versions: 1 2 3 4 5 6 7 8 9 10 11 12 13 14 15 16 17 18 19 20 21 22 23 24 25 26 27
000
ASUS41 KALY 021710
RWRALY

NEW YORK STATE HOURLY WEATHER ROUNDUP
NATIONAL WEATHER SERVICE ALBANY NY
1200 PM EST FRI DEC 02 2016

NOTE: "FAIR" INDICATES FEW OR NO CLOUDS BELOW 12,000 FEET WITH NO
SIGNIFICANT WEATHER AND/OR NO OBSTRUCTIONS TO VISIBILITY.

NYZ032-033-038>043-046>054-057>066-NYZ062>081-082-084-021800-
EAST


CITY           SKY/WX    TMP DP  RH WIND       PRES   REMARKS
ALBANY         PTSUNNY   49  31  49 W14       29.80S
GLENS FALLS    PTSUNNY   46  33  60 SW14G21   29.75S
POUGHKEEPSIE   MOSUNNY   48  30  49 W14       29.84F
NEWBURGH       PTSUNNY   46  34  61 W25G37    29.87F
MONTGOMERY     CLOUDY    48  32  53 W12G23    29.85F
WHITE PLAINS   MOSUNNY   49  30  48 NW17G23   29.85F
ISLIP          MOSUNNY   50  31  48 W15G28    29.86F
NEW YORK CITY  MOSUNNY   51  30  44 W20G29    29.88F
CENTRAL PARK   SUNNY     49  29  46 W9G23     29.90F
$$

NYZ005>009-017-018-044>046-055-056-021800-
CENTRAL


CITY           SKY/WX    TMP DP  RH WIND       PRES   REMARKS
FULTON         CLOUDY    44  32  62 W24G33    29.81F
SYRACUSE       CLOUDY    43  30  60 W23G31    29.81F
ROME           CLOUDY    42  31  64 W14G29    29.81S
ELMIRA         CLOUDY    43  31  62 W14G24    29.86F
BINGHAMTON     CLOUDY    37  32  82 W8        29.82F WCI  31
MONTICELLO     CLOUDY    39  32  75 W12       29.85F WCI  32
$$

NYZ026>034-041>043-087-021800-
NORTH


CITY           SKY/WX    TMP DP  RH WIND       PRES   REMARKS
WATERTOWN      CLOUDY    43  33  68 W22G33    29.75S
FORT DRUM      NOT AVBL
OGDENSBURG     RAIN      42  36  78 SW15G26   29.69S
MASSENA        LGT RAIN  39  34  82 W13G24    29.71R WCI  31
SARANAC LAKE   CLOUDY    36  33  89 SW10G20   29.64F WCI  28
PLATTSBURGH    CLOUDY    45  34  65 SW8       29.66F
$$

NYZ001>004-010>016-019>021-085-021800-
WEST


CITY           SKY/WX    TMP DP  RH WIND       PRES   REMARKS
NIAGARA FALLS  PTSUNNY   44  28  53 W25G36    29.88S
BUFFALO        PTSUNNY   42  28  57 W23G31    29.87F
DUNKIRK        CLOUDY    41  32  70 W18G28    29.92F
JAMESTOWN      CLOUDY    34  30  86 W8        29.91S VSB 1   WCI  27
WELLSVILLE     CLOUDY    37  30  75 W20G28    29.86F WCI  27
ROCHESTER      CLOUDY    44  29  55 W28G40    29.83F
PENN YAN       CLOUDY    39  32  76 SW9       29.86F WCI  33
$$

             KEY
       WCI = WIND CHILL INDEX
       VSB = VISIBILITY
       HX  = HEAT INDEX
$$




USA.gov is the U.S. government's official web portal to all federal, state and local government web resources and services.